Montego Bay/Sangster International Airport

Airport
ICAO code: 
MKJS
IATA Code: 
MBJ
Summary
ICAO Region: 
CARSAM
Territory: 
Location: 
Montego Bay,
Serving: 
Montego Bay
Elevation: 
4 ft
Coordinates: 
Aerial View: 
18° 30' 4.293" N, 77° 54' 48.183" W
Airport WX: 
Tropical Revolving Storm
Metar
Observation
MKJS 202200Z 09017KT 9999 FEW026 28/22 Q1013
Station
Montego Bay / Sangster
Date/Time
2022-01-20 22:00:00
Wind direction
90°
Wind speed
17 kts
Lowest cloud amount
few clouds
Temperature
28°C
Dew point
22°C
Humidity
69%
QNH
1013 hPa
Weather condition
n/a

Description

International airport serving Montego Bay, Jamaica.

Climatology

Tropical Savanna climate (Köppen climate classification Aw)

Runways

Designator Length Width Surface Rops
7/25 2662 46 ASP Yes/Yes
Airport map: 
Aerial View: 

Accidents and Serious Incidents at or in the vicinity of MKJS

SKYbrary Partners:

Safety knowledge contributed by: